Total_Precipitation_Accumulation
1.58 1.48 1.44 1.62 1.71 2.03 2.28 2.43 2.31 2.10 1.82 1.57 1.55 1.52 1.60 1.61 1.66 1.73 2.15 2.65 3.20 4.05 4.53 4.50 4.40 4.28 4.25 4.20 4.06 3.96 3.71 3.37 3.37 3.62 4.15 4.36 4.04 3.51 3.17 2.91 2.68 2.42 2.47
1.38 1.41 1.33 1.42 1.60 1.95 2.39 2.52 2.26 2.12 1.91 1.79 1.76 1.68 1.66 1.64 1.66 1.60 1.81 2.10 2.21 2.66 3.40 4.08 4.46 4.52 4.58 4.52 4.07 3.89 3.65 3.34 3.27 3.38 3.35 3.40 3.42 3.13 2.87 2.83 2.62 2.41 2.56
1.17 1.28 1.36 1.38 1.51 1.86 2.34 2.63 2.49 2.27 1.99 1.93 1.89 1.81 1.72 1.74 1.68 1.60 1.71 1.92 1.86 1.98 2.50 3.26 4.05 4.43 4.43 4.41 4.04 3.84 3.48 3.06 2.91 2.98 3.02 2.92 3.05 3.06 2.91 2.84 2.65 2.48 2.48
1.19 1.29 1.41 1.38 1.45 1.77 2.19 2.56 2.69 2.69 2.46 2.29 2.14 1.98 1.86 2.02 1.86 1.71 1.76 1.92 2.05 1.91 2.00 2.47 3.12 3.85 4.22 4.35 3.90 3.62 3.44 3.04 2.77 2.66 2.74 2.61 2.80 3.02 3.03 2.89 2.80 2.78 2.70
1.23 1.35 1.58 1.61 1.63 1.87 2.08 2.21 2.43 2.62 2.68 2.50 2.16 2.08 1.96 2.08 2.18 2.07 2.12 2.17 2.20 2.13 2.01 2.03 2.31 2.71 3.49 4.01 3.88 3.60 3.47 3.18 2.88 2.61 2.67 2.53 2.52 2.80 2.97 2.81 2.85 2.94 2.87
1.46 1.43 1.61 1.66 1.73 2.03 2.14 2.27 2.57 2.67 2.74 2.74 2.34 2.16 2.07 2.05 2.10 2.30 2.41 2.40 2.39 2.20 2.14 2.02 2.18 2.25 2.87 3.53 3.65 3.52 3.27 3.22 3.18 2.98 2.96 2.81 2.59 2.69 2.83 2.76 2.84 2.90 2.93
1.55 1.61 1.68 1.73 1.79 1.94 2.02 2.18 2.63 2.78 2.78 2.67 2.76 2.68 2.49 2.22 2.12 2.19 2.32 2.53 2.62 2.44 2.34 2.34 2.27 2.24 2.36 2.74 2.97 3.09 3.05 3.33 3.51 3.38 3.20 2.98 2.74 2.81 2.91 2.79 2.86 2.85 2.85
1.50 1.45 1.70 1.87 1.84 2.01 2.08 2.24 2.62 2.95 2.81 2.68 3.04 3.45 3.17 2.82 2.40 2.13 2.17 2.22 2.46 2.50 2.36 2.23 2.11 2.11 2.18 2.31 2.30 2.47 2.71 3.22 3.73 3.57 3.21 3.08 2.87 2.75 2.84 2.79 2.78 2.72 2.70
1.78 1.72 1.83 2.02 1.99 2.07 2.18 2.23 2.36 2.94 3.19 2.98 2.91 3.48 3.34 3.09 3.01 2.43 1.98 1.87 2.14 2.35 2.37 2.23 2.12 2.16 2.19 2.32 2.26 2.21 2.36 2.72 3.39 3.48 3.28 3.29 3.12 2.84 2.63 2.54 2.53 2.65 2.73
2.06 1.91 1.95 2.06 2.11 2.19 2.17 1.99 2.17 2.73 3.31 3.42 3.19 2.91 2.72 2.63 2.81 2.75 2.17 1.81 1.84 2.01 2.24 2.14 2.14 2.24 2.29 2.39 2.43 2.25 2.14 2.24 2.78 3.40 3.63 3.52 3.37 3.10 2.79 2.59 2.52 2.57 2.58
2.10 1.95 1.89 2.05 2.16 2.22 2.19 2.23 2.37 2.69 3.06 3.43 3.44 3.19 2.89 2.60 2.13 2.31 2.38 2.15 1.83 1.73 1.81 1.95 2.12 2.20 2.25 2.24 2.38 2.29 2.05 1.91 2.19 2.83 3.42 3.59 3.46 3.31 3.14 3.02 3.01 2.97 2.81
1.98 1.92 1.92 1.95 1.95 2.03 2.12 2.27 2.51 2.66 2.87 3.11 3.22 2.93 2.80 2.72 2.46 2.26 2.09 2.18 2.14 1.83 1.66 1.64 1.76 1.97 2.07 2.17 2.05 2.13 1.97 1.88 1.89 2.03 2.40 2.90 3.13 3.29 3.36 3.38 3.27 3.12 3.09
1.78 1.80 1.84 1.81 1.74 1.76 1.90 2.07 2.28 2.32 2.45 2.68 2.82 2.70 2.53 2.35 2.30 2.35 2.28 2.16 2.02 1.75 1.61 1.44 1.53 1.68 1.70 1.91 2.10 2.06 1.80 1.76 1.67 1.63 1.68 1.90 2.27 2.65 3.03 3.41 3.47 3.38 3.32
1.56 1.51 1.53 1.58 1.58 1.59 1.66 1.84 1.99 1.96 2.02 2.23 2.30 2.37 2.29 2.18 2.17 2.17 2.20 2.34 2.22 1.99 1.63 1.29 1.34 1.51 1.48 1.59 1.93 1.99 1.61 1.54 1.41 1.34 1.36 1.45 1.61 1.92 2.34 2.72 3.00 3.16 3.21
1.33 1.27 1.30 1.42 1.52 1.51 1.51 1.68 1.81 1.75 1.81 1.94 2.08 2.23 2.17 2.10 2.08 2.09 2.17 2.27 2.34 2.23 1.95 1.45 1.28 1.26 1.30 1.39 1.75 1.64 1.53 1.54 1.40 1.30 1.21 1.20 1.28 1.42 1.62 1.91 2.14 2.31 2.38
1.30 1.26 1.26 1.27 1.30 1.34 1.39 1.58 1.75 1.80 1.79 1.83 1.89 2.00 2.13 2.12 2.12 2.10 2.18 2.21 2.20 2.21 2.09 1.64 1.34 1.23 1.33 1.27 1.50 1.28 1.41 1.64 1.45 1.26 1.17 1.12 1.13 1.23 1.35 1.54 1.59 1.56 1.54
1.11 1.07 1.03 1.07 1.19 1.19 1.20 1.39 1.49 1.52 1.67 1.73 1.67 1.70 1.86 1.98 2.10 2.11 2.13 2.13 2.18 2.15 2.03 1.77 1.41 1.26 1.40 1.44 1.48 1.29 1.26 1.33 1.28 1.27 1.18 1.08 1.04 1.09 1.11 1.25 1.38 1.28 1.19
0.97 1.01 1.02 0.96 1.10 1.23 1.24 1.29 1.30 1.29 1.45 1.55 1.55 1.60 1.63 1.64 1.76 1.90 2.02 1.99 2.06 2.09 2.07 1.96 1.65 1.42 1.44 1.56 1.74 1.68 1.53 1.41 1.39 1.52 1.48 1.30 1.18 1.17 1.18 1.20 1.33 1.27 1.08
0.85 0.94 1.10 1.08 1.04 1.11 1.19 1.19 1.18 1.20 1.24 1.29 1.32 1.39 1.41 1.51 1.65 1.67 1.74 1.82 1.89 1.93 2.05 2.01 1.89 1.77 1.64 1.60 1.70 1.67 1.70 1.79 1.71 1.68 1.75 1.59 1.44 1.34 1.28 1.28 1.33 1.33 1.19
0.87 0.87 0.87 0.98 1.03 1.07 1.12 1.12 1.11 1.09 1.10 1.10 1.20 1.28 1.33 1.38 1.48 1.54 1.56 1.70 1.84 1.92 1.95 1.92 1.84 1.77 1.74 1.72 1.73 1.71 1.78 1.91 1.98 1.82 1.78 1.68 1.68 1.61 1.48 1.41 1.36 1.37 1.36
0.68 0.74 0.72 0.73 0.81 0.92 0.96 0.95 0.97 1.02 1.07 1.09 1.19 1.22 1.25 1.25 1.28 1.35 1.34 1.51 1.66 1.84 1.91 1.93 1.82 1.72 1.66 1.68 1.67 1.66 1.74 1.97 2.03 2.03 2.00 1.83 1.70 1.55 1.50 1.50 1.48 1.49 1.49
0.56 0.58 0.58 0.64 0.68 0.73 0.90 0.92 0.88 0.92 0.99 1.03 1.09 1.13 1.23 1.28 1.22 1.17 1.15 1.21 1.34 1.45 1.64 1.76 1.78 1.69 1.60 1.57 1.70 1.81 1.80 1.95 2.08 1.97 1.89 1.96 1.86 1.75 1.59 1.49 1.59 1.61 1.55
0.61 0.58 0.58 0.62 0.59 0.59 0.74 0.74 0.86 1.00 0.99 0.95 0.93 1.07 1.17 1.20 1.25 1.24 1.12 1.10 1.09 1.13 1.25 1.42 1.53 1.51 1.50 1.53 1.64 1.78 1.87 1.95 1.87 1.91 1.89 1.99 1.93 1.79 1.57 1.54 1.65 1.52 1.50
0.63 0.68 0.68 0.69 0.61 0.54 0.64 0.69 0.82 0.88 0.89 0.86 0.89 0.98 1.11 1.21 1.26 1.29 1.20 1.24 1.18 1.05 1.04 1.10 1.27 1.35 1.38 1.56 1.74 1.92 2.06 2.07 1.95 1.89 1.86 1.93 1.81 1.65 1.48 1.45 1.61 1.50 1.40
0.59 0.66 0.76 0.76 0.66 0.58 0.63 0.68 0.80 0.89 0.94 0.91 0.90 0.95 1.10 1.16 1.33 1.40 1.28 1.31 1.28 1.08 1.02 1.10 1.14 1.21 1.34 1.50 1.72 1.95 2.06 2.11 2.09 1.96 1.74 1.64 1.56 1.60 1.56 1.45 1.45 1.46 1.35
0.64 0.65 0.67 0.65 0.58 0.57 0.61 0.63 0.73 0.76 0.89 0.96 0.99 0.99 1.21 1.28 1.38 1.34 1.25 1.40 1.47 1.29 1.04 1.01 1.08 1.20 1.30 1.45 1.72 1.89 2.15 2.19 2.03 1.96 1.73 1.59 1.58 1.69 1.82 1.63 1.42 1.31 1.24